Zurück zum Katalog

STARLINK-11695

AktivKommunikationVLEO
NORAD 63551·PAYLOAD·🇺🇸 United States

Gestartet Apr 13, 2025 von Cape Canaveral Space Force Station

Loading…

Nächste Überflüge (nächste 24 Stunden)

TLE

AktuellSource: CelesTrak SupGP

Epoche: Sep 14, 2026, 22:59 UTC

1 63551C 25075D   26257.95812500  .00068412  00000+0  53157-3 0  2572
2 63551  43.0006  92.5324 0001636 279.8892 322.6254 15.70794934    15

Verfolge STARLINK-11695 in Echtzeit mit AllMySat

Download on the App Store